Location: Val-d'Or
(48.1170°N, 77.7670°W)
Time: 22:15:53
(UTC-04:00)

Envisat - Visible Passes

Search period start: 23 April 2019 00:00
Search period end: 03 May 2019 00:00
Orbit: 764 x 766 km, 98.2° (Epoch: 23 April)

Date Brightness Start Highest point End Pass type
(mag) Time Alt. Az. Time Alt. Az. Time Alt. Az.
24 Apr 5.7 20:57:46 10° SW 21:01:16 19° W 21:04:47 10° NW visible
26 Apr 6.2 21:25:59 10° W 21:27:09 11° W 21:28:20 10° WNW visible
27 Apr 5.6 20:45:57 10° SW 20:49:55 23° W 20:53:55 10° NW visible
29 Apr 5.9 21:13:15 10° WSW 21:15:46 14° W 21:18:18 10° WNW visible
02 May 5.8 21:01:07 10° SW 21:04:24 17° W 21:07:41 10° NW visible
